Regional Weather Roundup
Issued by NWS

Home | Current Version | Previous Version | Graphics & Text | Print | Product List | Glossary On
Versions: 1 2 3 4 5 6 7 8 9 10 11 12 13 14 15 16 17 18 19 20 21 22 23 24 25 26 27 28 29 30 31 32 33 34 35 36 37 38 39 40 41 42 43 44 45 46 47 48 49 50
565
ASUS43 KFSD 020710
RWRSD

WEATHER ROUNDUP FOR SOUTH DAKOTA
NATIONAL WEATHER SERVICE SIOUX FALLS SD
200 AM CDT MON MAY 02 2016

NOTE: "FAIR" INDICATES FEW OR NO CLOUDS BELOW 12,000 FEET WITH NO
SIGNIFICANT WEATHER AND/OR OBSTRUCTIONS TO VISIBILITY.


SDZ001>005-009-010-012>017-020800-
NORTHWEST AND NORTH CENTRAL SOUTH DAKOTA

CITY           SKY/WX    TMP DP  RH WIND       PRES   REMARKS
BUFFALO          N/A     41  30  65 W8        30.12F
FAITH            N/A     39  30  70 S10       30.18S
MOBRIDGE       CLEAR     39  33  79 E3        30.14S
$$

SDZ012>016-024>037-041>051-057-063-072>074-020800-
SOUTHWEST AND SOUTH CENTRAL SOUTH DAKOTA

CITY           SKY/WX    TMP DP  RH WIND       PRES   REMARKS
RAPID CTY ARPT CLEAR     36  29  75 W7        30.21F
PIERRE         CLEAR     41  34  76 SW7       30.17F
CUSTER         CLEAR     32  24  72 NW5       30.23F WCI  27
ELLSWORTH AFB  CLEAR     40  30  67 W6        30.20F
PHILIP         PTCLDY    37  33  85 W8        30.20F
PINE RIDGE     CLEAR     30  27  88 E3        30.23F
WINNER         FAIR      39  32  76 SW6       30.20F
$$

SDZ004>011-016>023-039-040-020800-
NORTHEAST SOUTH DAKOTA

CITY           SKY/WX    TMP DP  RH WIND       PRES   REMARKS
ABERDEEN       CLEAR     38  32  79 W9        30.15F
WATERTOWN      CLEAR     38  33  82 CALM      30.15S
BROOKINGS      CLEAR     41  32  70 SE3       30.15F
SISSETON         N/A     43  34  70 W5        30.12F
$$

SDZ017-020-022-023-036>040-048>070-020800-
SOUTHEAST SOUTH DAKOTA

CITY           SKY/WX    TMP DP  RH WIND       PRES   REMARKS
SIOUX FALLS    CLEAR     38  34  85 CALM      30.17S
HURON          CLEAR     38  34  85 W3        30.17S
CHAMBERLAIN    CLEAR     42  38  87 W5        30.19S
MITCHELL       PTCLDY    42  37  82 W5        30.18F
YANKTON        CLEAR     43  36  75 W3        30.17S
$$

ABBREVIATIONS USED IN REMARKS
   TC - TEMPERATURE IN CELSIUS
  WCI - WIND CHILL INDEX
   HX - HEAT INDEX
  VSB - VISIBILITY





USA.gov is the U.S. government's official web portal to all federal, state and local government web resources and services.